Time,TemperatureF,DewpointF,PressureIn,WindDirection,WindDirectionDegrees,WindSpeedMPH,WindSpeedGustMPH,Humidity,HourlyPrecipIn,Conditions,Clouds,dailyrainin,SoftwareType,DateUTC
2013-10-10 00:00:00,53.1,49.3,29.99,NE,45,0.0,0.0,87,0.00,CLR,CLR,0.00,WeatherDisplay:10.37,2013-10-10 04:00:00,
2013-10-10 00:01:00,52.9,49.1,29.99,NE,45,0.0,0.0,87,0.00,CLR,,0.00,WeatherDisplay:10.37,2013-10-10 04:01:00,
2013-10-10 00:02:00,52.9,49.1,29.99,NE,45,0.0,0.0,87,0.00,CLR,,0.00,WeatherDisplay:10.37,2013-10-10 04:02:00,
2013-10-10 00:07:00,52.9,49.1,29.99,NE,45,0.0,0.0,87,0.00,CLR,,0.00,WeatherDisplay:10.37,2013-10-10 04:07:00,
2013-10-10 00:12:00,52.3,48.3,30.00,East,90,0.0,0.0,86,0.00,CLR,,0.00,WeatherDisplay:10.37,2013-10-10 04:12:00,
2013-10-10 00:17:00,52.3,48.3,30.00,East,90,0.0,0.0,86,0.00,CLR,,0.00,WeatherDisplay:10.37,2013-10-10 04:17:00,
2013-10-10 00:22:00,52.5,48.1,30.00,East,90,0.0,0.0,85,0.00,CLR,,0.00,WeatherDisplay:10.37,2013-10-10 04:22:00,
2013-10-10 00:27:00,52.5,48.1,30.00,NE,45,0.0,1.2,85,0.00,CLR,,0.00,WeatherDisplay:10.37,2013-10-10 04:27:00,
2013-10-10 00:32:00,52.3,48.0,30.00,NE,45,0.0,1.2,85,0.00,CLR,,0.00,WeatherDisplay:10.37,2013-10-10 04:32:00,
2013-10-10 00:37:00,52.3,48.0,30.00,NE,45,0.0,0.0,85,0.00,CLR,,0.00,WeatherDisplay:10.37,2013-10-10 04:37:00,
2013-10-10 00:42:00,52.3,47.6,30.00,NE,45,0.0,0.0,84,0.00,CLR,,0.00,WeatherDisplay:10.37,2013-10-10 04:42:00,
2013-10-10 00:47:00,52.7,47.7,30.00,NE,45,0.0,0.0,83,0.00,CLR,,0.00,WeatherDisplay:10.37,2013-10-10 04:47:00,
2013-10-10 00:52:00,52.5,47.5,30.00,NE,45,0.0,0.0,83,0.00,CLR,,0.00,WeatherDisplay:10.37,2013-10-10 04:52:00,
2013-10-10 00:57:00,52.5,47.5,30.01,ENE,68,0.0,2.0,83,0.00,CLR,,0.00,WeatherDisplay:10.37,2013-10-10 04:57:00,
2013-10-10 01:02:00,52.3,47.3,30.01,ENE,68,0.0,0.0,83,0.00,CLR,,0.00,WeatherDisplay:10.37,2013-10-10 05:02:00,
2013-10-10 01:07:00,52.3,47.3,30.01,ENE,68,0.0,0.0,83,0.00,CLR,,0.00,WeatherDisplay:10.37,2013-10-10 05:07:00,
2013-10-10 01:12:00,52.0,47.3,30.01,ENE,68,0.0,0.0,84,0.00,CLR,,0.00,WeatherDisplay:10.37,2013-10-10 05:12:00,
2013-10-10 01:17:00,52.0,47.3,30.01,ENE,68,0.0,0.0,84,0.00,CLR,,0.00,WeatherDisplay:10.37,2013-10-10 05:17:00,
2013-10-10 01:22:00,51.8,47.1,30.01,ENE,68,0.0,1.2,84,0.00,CLR,,0.00,WeatherDisplay:10.37,2013-10-10 05:22:00,
2013-10-10 01:27:00,51.4,47.4,30.02,ENE,68,0.0,0.0,86,0.00,CLR,,0.00,WeatherDisplay:10.37,2013-10-10 05:27:00,
2013-10-10 01:32:00,51.3,47.2,30.02,ENE,68,0.0,0.0,86,0.00,CLR,,0.00,WeatherDisplay:10.37,2013-10-10 05:32:00,
2013-10-10 01:37:00,50.9,47.2,30.02,ENE,68,0.0,0.0,87,0.00,CLR,,0.00,WeatherDisplay:10.37,2013-10-10 05:37:00,
2013-10-10 01:42:00,50.7,47.3,30.02,ENE,68,0.0,0.0,88,0.00,CLR,,0.00,WeatherDisplay:10.37,2013-10-10 05:42:00,
2013-10-10 01:47:00,50.7,47.6,30.02,ENE,68,0.0,0.0,89,0.00,CLR,,0.00,WeatherDisplay:10.37,2013-10-10 05:47:00,
2013-10-10 01:52:00,50.7,47.6,30.02,ENE,68,0.0,0.0,89,0.00,CLR,,0.00,WeatherDisplay:10.37,2013-10-10 05:52:00,
2013-10-10 01:57:00,50.5,47.4,30.03,ENE,68,0.0,0.0,89,0.00,CLR,,0.00,WeatherDisplay:10.37,2013-10-10 05:57:00,
2013-10-10 02:02:00,50.5,47.7,30.03,ENE,68,0.0,0.0,90,0.00,CLR,,0.00,WeatherDisplay:10.37,2013-10-10 06:02:00,
2013-10-10 02:07:00,50.5,47.7,30.03,ENE,68,0.0,0.0,90,0.00,CLR,,0.00,WeatherDisplay:10.37,2013-10-10 06:07:00,
2013-10-10 02:12:00,50.4,47.5,30.03,NE,45,0.0,0.0,90,0.00,CLR,,0.00,WeatherDisplay:10.37,2013-10-10 06:12:00,
2013-10-10 02:17:00,50.4,47.5,30.03,NE,45,0.0,1.2,90,0.00,CLR,,0.00,WeatherDisplay:10.37,2013-10-10 06:17:00,
2013-10-10 02:22:00,50.2,47.4,30.04,NE,45,0.0,0.0,90,0.00,CLR,,0.00,WeatherDisplay:10.37,2013-10-10 06:22:00,
2013-10-10 02:27:00,50.2,47.4,30.04,NE,45,0.0,0.0,90,0.00,CLR,,0.00,WeatherDisplay:10.37,2013-10-10 06:27:00,
2013-10-10 02:32:00,50.0,47.5,30.04,NE,45,0.0,0.0,91,0.00,CLR,,0.00,WeatherDisplay:10.37,2013-10-10 06:32:00,
2013-10-10 02:37:00,49.8,47.6,30.04,NE,45,0.0,0.0,92,0.00,CLR,,0.00,WeatherDisplay:10.37,2013-10-10 06:37:00,
2013-10-10 02:42:00,49.8,47.6,30.04,NE,45,0.0,0.0,92,0.00,CLR,,0.00,WeatherDisplay:10.37,2013-10-10 06:42:00,
2013-10-10 02:47:00,50.0,47.8,30.05,NE,45,0.0,0.0,92,0.00,CLR,,0.00,WeatherDisplay:10.37,2013-10-10 06:47:00,
2013-10-10 02:52:00,50.0,47.8,30.05,NE,45,0.0,0.0,92,0.00,CLR,,0.00,WeatherDisplay:10.37,2013-10-10 06:52:00,
2013-10-10 02:57:00,50.0,47.8,30.05,NE,45,0.0,0.0,92,0.00,CLR,,0.00,WeatherDisplay:10.37,2013-10-10 06:57:00,
2013-10-10 03:02:00,49.8,47.9,30.05,NE,45,0.0,0.0,93,0.00,CLR,,0.00,WeatherDisplay:10.37,2013-10-10 07:02:00,
2013-10-10 03:07:00,49.5,47.8,30.05,NE,45,0.0,0.0,94,0.00,CLR,,0.00,WeatherDisplay:10.37,2013-10-10 07:07:00,
2013-10-10 03:12:00,48.9,47.3,30.06,NE,45,0.0,1.2,94,0.00,CLR,,0.00,WeatherDisplay:10.37,2013-10-10 07:12:00,
2013-10-10 03:17:00,48.9,47.3,30.05,NE,45,0.0,0.0,94,0.00,CLR,,0.00,WeatherDisplay:10.37,2013-10-10 07:17:00,
2013-10-10 03:22:00,48.9,47.6,30.06,NE,45,0.0,0.0,95,0.00,CLR,,0.00,WeatherDisplay:10.37,2013-10-10 07:22:00,
2013-10-10 03:27:00,48.9,47.6,30.06,NE,45,0.0,0.0,95,0.00,CLR,,0.00,WeatherDisplay:10.37,2013-10-10 07:27:00,
2013-10-10 03:32:00,48.7,47.4,30.06,NE,45,0.0,0.0,95,0.00,CLR,,0.00,WeatherDisplay:10.37,2013-10-10 07:32:00,
2013-10-10 03:37:00,48.7,47.4,30.06,NE,45,0.0,0.0,95,0.00,CLR,,0.00,WeatherDisplay:10.37,2013-10-10 07:37:00,
2013-10-10 03:42:00,49.1,48.0,30.06,NE,45,0.0,1.2,96,0.00,CLR,,0.00,WeatherDisplay:10.37,2013-10-10 07:42:00,
2013-10-10 03:47:00,49.1,48.0,30.06,NE,45,0.0,0.0,96,0.00,CLR,,0.00,WeatherDisplay:10.37,2013-10-10 07:47:00,
2013-10-10 03:52:00,49.3,48.2,30.06,NE,45,0.0,0.0,96,0.00,CLR,,0.00,WeatherDisplay:10.37,2013-10-10 07:52:00,
2013-10-10 03:57:00,49.5,48.4,30.06,NE,45,0.0,0.0,96,0.00,CLR,,0.00,WeatherDisplay:10.37,2013-10-10 07:57:00,
2013-10-10 04:02:00,49.5,48.4,30.06,NE,45,0.0,0.0,96,0.00,CLR,,0.00,WeatherDisplay:10.37,2013-10-10 08:02:00,
2013-10-10 04:07:00,49.5,48.4,30.06,NE,45,0.0,0.0,96,0.00,CLR,,0.00,WeatherDisplay:10.37,2013-10-10 08:07:00,
2013-10-10 04:12:00,49.5,48.4,30.06,NE,45,0.0,1.2,96,0.00,CLR,,0.00,WeatherDisplay:10.37,2013-10-10 08:12:00,
2013-10-10 04:17:00,49.5,48.4,30.07,NE,45,0.0,0.0,96,0.00,CLR,,0.00,WeatherDisplay:10.37,2013-10-10 08:17:00,
2013-10-10 04:22:00,49.6,48.5,30.06,East,90,0.0,0.0,96,0.00,CLR,,0.00,WeatherDisplay:10.37,2013-10-10 08:22:00,
2013-10-10 04:27:00,49.8,48.7,30.07,NE,45,0.0,0.0,96,0.00,CLR,,0.00,WeatherDisplay:10.37,2013-10-10 08:27:00,
2013-10-10 04:32:00,49.6,48.5,30.07,NE,45,0.0,0.0,96,0.00,CLR,,0.00,WeatherDisplay:10.37,2013-10-10 08:32:00,
2013-10-10 04:37:00,49.6,48.3,30.07,NE,45,0.0,0.0,95,0.00,CLR,,0.00,WeatherDisplay:10.37,2013-10-10 08:37:00,
2013-10-10 04:42:00,49.3,47.9,30.07,NE,45,0.0,0.0,95,0.00,CLR,,0.00,WeatherDisplay:10.37,2013-10-10 08:42:00,
2013-10-10 04:47:00,49.1,47.7,30.07,NE,45,0.0,0.0,95,0.00,CLR,,0.00,WeatherDisplay:10.37,2013-10-10 08:47:00,
2013-10-10 04:52:00,48.9,47.6,30.07,NE,45,0.0,0.0,95,0.00,CLR,,0.00,WeatherDisplay:10.37,2013-10-10 08:52:00,
2013-10-10 04:57:00,48.7,47.4,30.08,NE,45,0.0,1.2,95,0.00,CLR,,0.00,WeatherDisplay:10.37,2013-10-10 08:57:00,
2013-10-10 05:02:00,48.7,47.7,30.08,NE,45,0.0,0.0,96,0.00,CLR,,0.00,WeatherDisplay:10.37,2013-10-10 09:02:00,
2013-10-10 05:07:00,48.9,47.8,30.08,East,90,0.0,0.0,96,0.00,CLR,,0.00,WeatherDisplay:10.37,2013-10-10 09:07:00,
2013-10-10 05:13:00,48.9,47.8,30.08,NE,45,0.0,1.2,96,0.00,CLR,,0.00,WeatherDisplay:10.37,2013-10-10 09:13:00,
2013-10-10 05:18:00,48.7,47.7,30.08,NE,45,0.0,0.0,96,0.00,CLR,,0.00,WeatherDisplay:10.37,2013-10-10 09:18:00,
2013-10-10 05:23:00,48.7,47.7,30.09,NE,45,0.0,0.0,96,0.00,CLR,,0.00,WeatherDisplay:10.37,2013-10-10 09:23:00,
2013-10-10 05:28:00,48.7,47.7,30.09,NE,45,0.0,0.0,96,0.00,CLR,,0.00,WeatherDisplay:10.37,2013-10-10 09:28:00,
2013-10-10 05:33:00,48.6,47.5,30.09,NE,45,0.0,0.0,96,0.00,CLR,,0.00,WeatherDisplay:10.37,2013-10-10 09:33:00,
2013-10-10 05:38:00,48.6,47.5,30.09,NE,45,0.0,1.2,96,0.00,CLR,,0.00,WeatherDisplay:10.37,2013-10-10 09:38:00,
2013-10-10 05:43:00,48.6,47.5,30.09,NE,45,0.0,0.0,96,0.00,CLR,,0.00,WeatherDisplay:10.37,2013-10-10 09:43:00,
2013-10-10 05:48:00,48.4,47.3,30.10,NE,45,0.0,0.0,96,0.00,CLR,,0.00,WeatherDisplay:10.37,2013-10-10 09:48:00,
2013-10-10 05:53:00,48.2,47.1,30.10,NE,45,0.0,0.0,96,0.00,CLR,,0.00,WeatherDisplay:10.37,2013-10-10 09:53:00,
2013-10-10 05:58:00,47.8,47.3,30.10,NE,45,0.0,0.0,98,0.00,CLR,,0.00,WeatherDisplay:10.37,2013-10-10 09:58:00,
2013-10-10 06:03:00,47.7,47.1,30.10,NE,45,0.0,0.0,98,0.00,CLR,,0.00,WeatherDisplay:10.37,2013-10-10 10:03:00,
2013-10-10 06:08:00,47.5,46.9,30.11,NE,45,0.0,0.0,98,0.00,CLR,,0.00,WeatherDisplay:10.37,2013-10-10 10:08:00,
2013-10-10 06:13:00,47.5,46.9,30.11,NE,45,0.0,0.0,98,0.00,CLR,,0.00,WeatherDisplay:10.37,2013-10-10 10:13:00,
2013-10-10 06:18:00,47.5,47.2,30.11,NE,45,0.0,0.0,99,0.00,CLR,,0.00,WeatherDisplay:10.37,2013-10-10 10:18:00,
2013-10-10 06:23:00,47.3,47.0,30.11,NE,45,0.0,0.0,99,0.00,CLR,,0.00,WeatherDisplay:10.37,2013-10-10 10:23:00,
2013-10-10 06:28:00,47.3,47.0,30.11,NE,45,0.0,0.0,99,0.00,CLR,,0.00,WeatherDisplay:10.37,2013-10-10 10:28:00,
2013-10-10 06:33:00,47.3,47.0,30.11,NE,45,0.0,0.0,99,0.00,CLR,,0.00,WeatherDisplay:10.37,2013-10-10 10:33:00,
2013-10-10 06:38:00,47.3,47.0,30.11,NE,45,0.0,1.2,99,0.00,CLR,,0.00,WeatherDisplay:10.37,2013-10-10 10:38:00,
2013-10-10 06:43:00,47.5,47.2,30.11,NE,45,0.0,0.0,99,0.00,CLR,,0.00,WeatherDisplay:10.37,2013-10-10 10:43:00,
2013-10-10 06:48:00,47.7,47.4,30.11,NE,45,0.0,2.3,99,0.00,CLR,,0.00,WeatherDisplay:10.37,2013-10-10 10:48:00,
2013-10-10 06:53:00,47.7,47.4,30.11,NE,45,0.0,0.0,99,0.00,CLR,,0.00,WeatherDisplay:10.37,2013-10-10 10:53:00,
2013-10-10 06:58:00,47.8,47.6,30.12,East,90,0.0,0.0,99,0.00,CLR,,0.00,WeatherDisplay:10.37,2013-10-10 10:58:00,
2013-10-10 07:03:00,48.0,47.8,30.12,East,90,0.0,0.0,99,0.00,CLR,,0.00,WeatherDisplay:10.37,2013-10-10 11:03:00,
2013-10-10 07:08:00,48.0,47.8,30.12,East,90,0.0,0.0,99,0.00,CLR,,0.00,WeatherDisplay:10.37,2013-10-10 11:08:00,
2013-10-10 07:13:00,47.8,47.6,30.12,East,90,0.0,0.0,99,0.00,CLR,,0.00,WeatherDisplay:10.37,2013-10-10 11:13:00,
2013-10-10 07:18:00,47.7,47.4,30.12,East,90,0.0,0.0,99,0.00,CLR,,0.00,WeatherDisplay:10.37,2013-10-10 11:18:00,
2013-10-10 07:23:00,47.5,47.2,30.12,East,90,0.0,2.3,99,0.00,CLR,,0.00,WeatherDisplay:10.37,2013-10-10 11:23:00,
2013-10-10 07:28:00,47.3,47.0,30.12,East,90,0.0,1.2,99,0.00,CLR,,0.00,WeatherDisplay:10.37,2013-10-10 11:28:00,
2013-10-10 07:33:00,47.1,46.9,30.13,East,90,0.0,0.0,99,0.00,CLR,,0.00,WeatherDisplay:10.37,2013-10-10 11:33:00,
2013-10-10 07:38:00,47.1,46.9,30.13,East,90,0.0,0.0,99,0.00,CLR,,0.00,WeatherDisplay:10.37,2013-10-10 11:38:00,
2013-10-10 07:43:00,47.1,46.9,30.13,East,90,0.0,0.0,99,0.00,CLR,,0.00,WeatherDisplay:10.37,2013-10-10 11:43:00,
2013-10-10 07:48:00,47.1,46.9,30.13,East,90,0.0,2.3,99,0.00,CLR,,0.00,WeatherDisplay:10.37,2013-10-10 11:48:00,
2013-10-10 07:53:00,47.1,46.9,30.13,East,90,0.0,0.0,99,0.00,CLR,,0.00,WeatherDisplay:10.37,2013-10-10 11:53:00,
2013-10-10 07:58:00,47.1,46.9,30.13,East,90,0.0,0.0,99,0.00,CLR,,0.00,WeatherDisplay:10.37,2013-10-10 11:58:00,
2013-10-10 08:03:00,47.1,46.9,30.13,East,90,0.0,0.0,99,0.00,CLR,,0.00,WeatherDisplay:10.37,2013-10-10 12:03:00,
2013-10-10 08:08:00,47.3,47.0,30.13,East,90,0.0,0.0,99,0.00,CLR,,0.00,WeatherDisplay:10.37,2013-10-10 12:08:00,
2013-10-10 08:13:00,47.3,47.0,30.13,East,90,0.0,0.0,99,0.00,CLR,,0.00,WeatherDisplay:10.37,2013-10-10 12:13:00,
2013-10-10 08:18:00,47.5,47.2,30.12,ENE,68,0.0,0.0,99,0.00,CLR,,0.00,WeatherDisplay:10.37,2013-10-10 12:18:00,
2013-10-10 08:23:00,47.7,47.4,30.13,East,90,0.0,0.0,99,0.00,CLR,,0.00,WeatherDisplay:10.37,2013-10-10 12:23:00,
2013-10-10 08:28:00,47.8,47.6,30.13,East,90,0.0,0.0,99,0.00,CLR,,0.00,WeatherDisplay:10.37,2013-10-10 12:28:00,
2013-10-10 08:33:00,48.2,47.9,30.14,East,90,0.0,0.0,99,0.00,CLR,,0.00,WeatherDisplay:10.37,2013-10-10 12:33:00,
2013-10-10 08:38:00,48.4,48.1,30.13,East,90,0.0,0.0,99,0.00,CLR,,0.00,WeatherDisplay:10.37,2013-10-10 12:38:00,
2013-10-10 08:43:00,48.9,48.7,30.14,East,90,0.0,0.0,99,0.00,CLR,,0.00,WeatherDisplay:10.37,2013-10-10 12:43:00,
2013-10-10 08:48:00,49.1,48.8,30.13,East,90,0.0,0.0,99,0.00,CLR,,0.00,WeatherDisplay:10.37,2013-10-10 12:48:00,
2013-10-10 08:53:00,49.6,49.1,30.13,East,90,0.0,0.0,98,0.00,CLR,,0.00,WeatherDisplay:10.37,2013-10-10 12:53:00,
2013-10-10 08:58:00,50.0,49.2,30.14,East,90,0.0,0.0,97,0.00,CLR,,0.00,WeatherDisplay:10.37,2013-10-10 12:58:00,
2013-10-10 09:03:00,50.4,49.3,30.14,East,90,0.0,0.0,96,0.00,CLR,,0.00,WeatherDisplay:10.37,2013-10-10 13:03:00,
2013-10-10 09:08:00,50.7,49.3,30.14,East,90,0.0,0.0,95,0.00,CLR,,0.00,WeatherDisplay:10.37,2013-10-10 13:08:00,
2013-10-10 09:13:00,51.3,49.9,30.14,East,90,0.0,0.0,95,0.00,CLR,,0.00,WeatherDisplay:10.37,2013-10-10 13:13:00,
2013-10-10 09:18:00,52.0,49.7,30.14,East,90,0.0,0.0,92,0.00,CLR,,0.00,WeatherDisplay:10.37,2013-10-10 13:18:00,
2013-10-10 09:23:00,52.5,50.0,30.14,East,90,0.0,0.0,91,0.00,CLR,,0.00,WeatherDisplay:10.37,2013-10-10 13:23:00,
2013-10-10 09:28:00,53.4,50.6,30.14,East,90,0.0,0.0,90,0.00,CLR,,0.00,WeatherDisplay:10.37,2013-10-10 13:28:00,
2013-10-10 09:33:00,54.1,50.4,30.14,East,90,0.0,0.0,87,0.00,CLR,,0.00,WeatherDisplay:10.37,2013-10-10 13:33:00,
2013-10-10 09:38:00,54.7,49.9,30.14,East,90,0.0,0.0,84,0.00,CLR,,0.00,WeatherDisplay:10.37,2013-10-10 13:38:00,
2013-10-10 09:43:00,55.2,50.1,30.14,East,90,0.0,0.0,83,0.00,CLR,,0.00,WeatherDisplay:10.37,2013-10-10 13:43:00,
2013-10-10 09:48:00,55.8,50.7,30.14,SE,135,0.0,0.0,83,0.00,CLR,,0.00,WeatherDisplay:10.37,2013-10-10 13:48:00,
2013-10-10 09:53:00,56.7,51.2,30.15,SE,135,0.0,0.0,82,0.00,CLR,,0.00,WeatherDisplay:10.37,2013-10-10 13:53:00,
2013-10-10 09:58:00,57.7,51.6,30.15,SE,135,0.0,0.0,80,0.00,CLR,,0.00,WeatherDisplay:10.37,2013-10-10 13:58:00,
2013-10-10 10:03:00,58.5,51.6,30.16,SE,135,0.0,0.0,78,0.00,CLR,,0.00,WeatherDisplay:10.37,2013-10-10 14:03:00,
2013-10-10 10:08:00,59.0,51.4,30.16,SE,135,0.0,0.0,76,0.00,CLR,,0.00,WeatherDisplay:10.37,2013-10-10 14:08:00,
2013-10-10 10:13:00,59.4,51.8,30.16,SE,135,0.0,0.0,76,0.00,CLR,,0.00,WeatherDisplay:10.37,2013-10-10 14:13:00,
2013-10-10 10:18:00,59.9,52.0,30.16,SE,135,0.0,0.0,75,0.00,CLR,,0.00,WeatherDisplay:10.37,2013-10-10 14:18:00,
2013-10-10 10:23:00,59.9,52.0,30.16,SE,135,0.0,0.0,75,0.00,CLR,,0.00,WeatherDisplay:10.37,2013-10-10 14:23:00,
2013-10-10 10:28:00,61.0,52.6,30.16,SE,135,0.0,0.0,74,0.00,CLR,,0.00,WeatherDisplay:10.37,2013-10-10 14:28:00,
2013-10-10 10:33:00,62.8,54.0,30.16,SE,135,0.0,1.2,73,0.00,CLR,,0.00,WeatherDisplay:10.37,2013-10-10 14:33:00,
2013-10-10 10:38:00,63.5,53.9,30.16,SE,135,0.0,0.0,71,0.00,CLR,,0.00,WeatherDisplay:10.37,2013-10-10 14:38:00,
2013-10-10 10:43:00,64.4,54.0,30.16,SE,135,0.0,0.0,69,0.00,CLR,,0.00,WeatherDisplay:10.37,2013-10-10 14:43:00,
2013-10-10 10:48:00,65.5,54.6,30.16,SE,135,0.0,0.0,68,0.00,CLR,,0.00,WeatherDisplay:10.37,2013-10-10 14:48:00,
2013-10-10 10:53:00,66.4,54.7,30.16,SE,135,0.0,0.0,66,0.00,CLR,,0.00,WeatherDisplay:10.37,2013-10-10 14:53:00,
2013-10-10 10:58:00,66.6,54.0,30.15,SE,135,0.0,0.0,64,0.00,CLR,,0.00,WeatherDisplay:10.37,2013-10-10 14:58:00,
2013-10-10 11:03:00,67.3,55.1,30.15,SE,135,0.0,0.0,65,0.00,CLR,,0.00,WeatherDisplay:10.37,2013-10-10 15:03:00,
2013-10-10 11:08:00,68.2,55.1,30.15,SE,135,0.0,0.0,63,0.00,CLR,,0.00,WeatherDisplay:10.37,2013-10-10 15:08:00,
2013-10-10 11:13:00,68.9,54.9,30.14,SE,135,0.0,0.0,61,0.00,CLR,,0.00,WeatherDisplay:10.37,2013-10-10 15:13:00,
2013-10-10 11:18:00,68.4,53.9,30.14,East,90,0.0,0.0,60,0.00,CLR,,0.00,WeatherDisplay:10.37,2013-10-10 15:18:00,
2013-10-10 11:23:00,67.8,54.3,30.15,NE,45,0.0,0.0,62,0.00,CLR,,0.00,WeatherDisplay:10.37,2013-10-10 15:23:00,
2013-10-10 11:28:00,68.5,55.0,30.14,East,90,0.0,1.2,62,0.00,CLR,,0.00,WeatherDisplay:10.37,2013-10-10 15:28:00,
2013-10-10 11:33:00,68.5,55.0,30.14,East,90,0.0,0.0,62,0.00,CLR,,0.00,WeatherDisplay:10.37,2013-10-10 15:33:00,
2013-10-10 11:38:00,69.4,55.9,30.14,East,90,0.0,0.0,62,0.00,CLR,,0.00,WeatherDisplay:10.37,2013-10-10 15:38:00,
2013-10-10 11:43:00,71.2,56.2,30.14,East,90,0.0,0.0,59,0.00,CLR,,0.00,WeatherDisplay:10.37,2013-10-10 15:43:00,
2013-10-10 11:48:00,71.8,55.2,30.14,East,90,0.0,0.0,56,0.00,CLR,,0.00,WeatherDisplay:10.37,2013-10-10 15:48:00,
2013-10-10 11:53:00,72.5,55.4,30.14,East,90,0.0,0.0,55,0.00,CLR,,0.00,WeatherDisplay:10.37,2013-10-10 15:53:00,
2013-10-10 11:58:00,73.0,55.4,30.13,East,90,0.0,0.0,54,0.00,CLR,,0.00,WeatherDisplay:10.37,2013-10-10 15:58:00,
2013-10-10 12:03:00,73.2,55.6,30.13,North,0,0.0,0.0,54,0.00,CLR,,0.00,WeatherDisplay:10.37,2013-10-10 16:03:00,
2013-10-10 12:08:00,74.8,55.5,30.13,East,90,0.0,0.0,51,0.00,CLR,,0.00,WeatherDisplay:10.37,2013-10-10 16:08:00,
2013-10-10 12:13:00,74.5,55.7,30.12,East,90,0.0,0.0,52,0.00,CLR,,0.00,WeatherDisplay:10.37,2013-10-10 16:13:00,
2013-10-10 12:18:00,73.9,54.1,30.12,East,90,0.0,0.0,50,0.00,CLR,,0.00,WeatherDisplay:10.37,2013-10-10 16:18:00,
2013-10-10 12:23:00,74.5,53.5,30.12,East,90,0.0,0.0,48,0.00,CLR,,0.00,WeatherDisplay:10.37,2013-10-10 16:23:00,
2013-10-10 12:28:00,73.9,53.0,30.12,East,90,0.0,0.0,48,0.00,CLR,,0.00,WeatherDisplay:10.37,2013-10-10 16:28:00,
2013-10-10 12:33:00,74.5,54.1,30.11,East,90,0.0,0.0,49,0.00,CLR,,0.00,WeatherDisplay:10.37,2013-10-10 16:33:00,
2013-10-10 12:38:00,75.4,53.7,30.11,East,90,0.0,0.0,47,0.00,CLR,,0.00,WeatherDisplay:10.37,2013-10-10 16:38:00,
2013-10-10 12:43:00,74.7,53.1,30.11,East,90,0.0,0.0,47,0.00,CLR,,0.00,WeatherDisplay:10.37,2013-10-10 16:43:00,
2013-10-10 12:48:00,75.4,53.2,30.11,East,90,0.0,0.0,46,0.00,CLR,,0.00,WeatherDisplay:10.37,2013-10-10 16:48:00,
2013-10-10 12:53:00,76.3,53.4,30.11,East,90,0.0,0.0,45,0.00,CLR,,0.00,WeatherDisplay:10.37,2013-10-10 16:53:00,
2013-10-10 12:58:00,75.7,52.3,30.10,East,90,0.0,0.0,44,0.00,CLR,,0.00,WeatherDisplay:10.37,2013-10-10 16:58:00,
2013-10-10 13:03:00,76.5,52.9,30.10,East,90,0.0,0.0,44,0.00,CLR,,0.00,WeatherDisplay:10.37,2013-10-10 17:03:00,
2013-10-10 13:08:00,75.6,52.1,30.10,East,90,0.0,0.0,44,0.00,CLR,,0.00,WeatherDisplay:10.37,2013-10-10 17:08:00,
2013-10-10 13:13:00,75.9,53.0,30.09,East,90,0.0,0.0,45,0.00,CLR,,0.00,WeatherDisplay:10.37,2013-10-10 17:13:00,
2013-10-10 13:18:00,77.0,50.8,30.09,East,90,0.0,0.0,40,0.00,CLR,,0.00,WeatherDisplay:10.37,2013-10-10 17:18:00,
2013-10-10 13:23:00,77.4,49.0,30.08,East,90,0.0,0.0,37,0.00,CLR,,0.00,WeatherDisplay:10.37,2013-10-10 17:23:00,
2013-10-10 13:28:00,77.0,50.1,30.08,SE,135,0.0,0.0,39,0.00,CLR,,0.00,WeatherDisplay:10.37,2013-10-10 17:28:00,
2013-10-10 13:33:00,77.0,48.7,30.07,SE,135,0.0,0.0,37,0.00,CLR,,0.00,WeatherDisplay:10.37,2013-10-10 17:33:00,
2013-10-10 13:38:00,77.2,47.4,30.07,East,90,0.0,0.0,35,0.00,CLR,,0.00,WeatherDisplay:10.37,2013-10-10 17:38:00,
2013-10-10 13:43:00,77.0,48.0,30.07,East,90,0.0,0.0,36,0.00,CLR,,0.00,WeatherDisplay:10.37,2013-10-10 17:43:00,
2013-10-10 13:48:00,78.6,48.7,30.06,SE,135,0.0,0.0,35,0.00,CLR,,0.00,WeatherDisplay:10.37,2013-10-10 17:48:00,
2013-10-10 13:53:00,77.4,47.6,30.06,East,90,0.0,0.0,35,0.00,CLR,,0.00,WeatherDisplay:10.37,2013-10-10 17:53:00,
2013-10-10 13:58:00,76.8,49.3,30.06,SE,135,0.0,0.0,38,0.00,CLR,,0.00,WeatherDisplay:10.37,2013-10-10 17:58:00,
2013-10-10 14:03:00,76.8,50.0,30.05,South,180,0.0,0.0,39,0.00,CLR,,0.00,WeatherDisplay:10.37,2013-10-10 18:03:00,
2013-10-10 14:08:00,76.8,50.0,30.05,South,180,0.0,0.0,39,0.00,CLR,,0.00,WeatherDisplay:10.37,2013-10-10 18:08:00,
2013-10-10 14:13:00,77.2,48.9,30.04,SE,135,0.0,0.0,37,0.00,CLR,,0.00,WeatherDisplay:10.37,2013-10-10 18:13:00,
2013-10-10 14:18:00,78.3,49.8,30.03,SE,135,0.0,0.0,37,0.00,CLR,,0.00,WeatherDisplay:10.37,2013-10-10 18:18:00,
2013-10-10 14:23:00,78.6,49.4,30.03,SW,225,0.0,0.0,36,0.00,CLR,,0.00,WeatherDisplay:10.37,2013-10-10 18:23:00,
2013-10-10 14:28:00,78.6,49.4,30.02,South,180,0.0,0.0,36,0.00,CLR,,0.00,WeatherDisplay:10.37,2013-10-10 18:28:00,
2013-10-10 14:33:00,79.3,49.3,30.02,SE,135,0.0,0.0,35,0.00,CLR,,0.00,WeatherDisplay:10.37,2013-10-10 18:33:00,
2013-10-10 14:38:00,79.0,48.2,30.01,South,180,0.0,0.0,34,0.00,CLR,,0.00,WeatherDisplay:10.37,2013-10-10 18:38:00,
2013-10-10 14:43:00,79.0,48.2,30.00,East,90,0.0,0.0,34,0.00,CLR,,0.00,WeatherDisplay:10.37,2013-10-10 18:43:00,
2013-10-10 14:48:00,77.4,48.3,30.00,East,90,0.0,0.0,36,0.00,CLR,,0.00,WeatherDisplay:10.37,2013-10-10 18:48:00,
2013-10-10 14:53:00,77.4,49.8,30.00,East,90,0.0,0.0,38,0.00,CLR,,0.00,WeatherDisplay:10.37,2013-10-10 18:53:00,
2013-10-10 14:58:00,78.8,50.3,29.99,East,90,0.0,0.0,37,0.00,CLR,,0.00,WeatherDisplay:10.37,2013-10-10 18:58:00,
2013-10-10 15:03:00,78.6,48.7,29.98,East,90,0.0,0.0,35,0.00,CLR,,0.00,WeatherDisplay:10.37,2013-10-10 19:03:00,
2013-10-10 15:08:00,78.6,48.7,29.98,East,90,0.0,0.0,35,0.00,CLR,,0.00,WeatherDisplay:10.37,2013-10-10 19:08:00,
2013-10-10 15:13:00,79.5,47.9,29.97,East,90,0.0,0.0,33,0.00,CLR,,0.00,WeatherDisplay:10.37,2013-10-10 19:13:00,
2013-10-10 15:18:00,78.6,47.9,29.96,East,90,0.0,0.0,34,0.00,CLR,,0.00,WeatherDisplay:10.37,2013-10-10 19:18:00,
2013-10-10 15:23:00,78.8,47.3,29.95,East,90,0.0,0.0,33,0.00,CLR,,0.00,WeatherDisplay:10.37,2013-10-10 19:23:00,
2013-10-10 15:28:00,78.6,47.9,29.94,East,90,0.0,0.0,34,0.00,CLR,,0.00,WeatherDisplay:10.37,2013-10-10 19:28:00,
2013-10-10 15:33:00,78.4,48.5,29.93,East,90,0.0,0.0,35,0.00,CLR,,0.00,WeatherDisplay:10.37,2013-10-10 19:33:00,
2013-10-10 15:38:00,78.3,48.4,29.93,East,90,0.0,0.0,35,0.00,CLR,,0.00,WeatherDisplay:10.37,2013-10-10 19:38:00,
2013-10-10 15:43:00,78.1,48.9,29.92,East,90,0.0,0.0,36,0.00,CLR,,0.00,WeatherDisplay:10.37,2013-10-10 19:43:00,
2013-10-10 15:48:00,78.6,49.4,29.91,East,90,0.0,0.0,36,0.00,CLR,,0.00,WeatherDisplay:10.37,2013-10-10 19:48:00,
2013-10-10 15:53:00,79.0,47.4,29.90,East,90,0.0,0.0,33,0.00,CLR,,0.00,WeatherDisplay:10.37,2013-10-10 19:53:00,
2013-10-10 15:59:00,78.6,47.9,29.89,East,90,0.0,0.0,34,0.00,CLR,,0.00,WeatherDisplay:10.37,2013-10-10 19:59:00,
2013-10-10 16:04:00,78.6,47.9,29.88,East,90,0.0,0.0,34,0.00,CLR,,0.00,WeatherDisplay:10.37,2013-10-10 20:04:00,
2013-10-10 16:09:00,79.9,49.0,29.88,East,90,0.0,0.0,34,0.00,CLR,,0.00,WeatherDisplay:10.37,2013-10-10 20:09:00,
2013-10-10 16:14:00,80.4,47.9,29.87,East,90,0.0,0.0,32,0.00,CLR,,0.00,WeatherDisplay:10.37,2013-10-10 20:14:00,
2013-10-10 16:19:00,80.8,49.0,29.86,North,0,0.0,0.0,33,0.00,CLR,,0.00,WeatherDisplay:10.37,2013-10-10 20:19:00,
2013-10-10 16:24:00,80.1,51.4,29.85,South,180,0.0,0.0,37,0.00,CLR,,0.00,WeatherDisplay:10.37,2013-10-10 20:24:00,
2013-10-10 16:29:00,79.0,51.9,29.84,SW,225,0.0,0.0,39,0.00,CLR,,0.00,WeatherDisplay:10.37,2013-10-10 20:29:00,
2013-10-10 16:31:00,77.5,53.3,29.83,SW,225,0.0,0.0,43,0.00,CLR,,0.00,WeatherDisplay:10.37,2013-10-10 20:31:00,
2013-10-10 16:36:00,77.0,53.4,29.83,South,180,0.0,0.0,44,0.00,CLR,,0.00,WeatherDisplay:10.37,2013-10-10 20:36:00,
2013-10-10 16:41:00,77.2,53.6,29.82,North,0,0.0,0.0,44,0.00,CLR,,0.00,WeatherDisplay:10.37,2013-10-10 20:41:00,
2013-10-10 16:46:00,77.2,54.2,29.82,North,0,0.0,0.0,45,0.00,CLR,,0.00,WeatherDisplay:10.37,2013-10-10 20:46:00,
2013-10-10 16:52:00,76.6,54.3,29.81,North,0,0.0,0.0,46,0.00,CLR,,0.00,WeatherDisplay:10.37,2013-10-10 20:52:00,
2013-10-10 16:57:00,76.6,54.9,29.81,NW,315,0.0,0.0,47,0.00,CLR,,0.00,WeatherDisplay:10.37,2013-10-10 20:57:00,
2013-10-10 17:02:00,76.6,54.9,29.80,NW,315,0.0,0.0,47,0.00,CLR,,0.00,WeatherDisplay:10.37,2013-10-10 21:02:00,
2013-10-10 17:07:00,76.8,54.5,29.79,SW,225,0.0,0.0,46,0.00,CLR,,0.00,WeatherDisplay:10.37,2013-10-10 21:07:00,
2013-10-10 17:12:00,77.5,54.5,29.79,SW,225,0.0,0.0,45,0.00,CLR,,0.00,WeatherDisplay:10.37,2013-10-10 21:12:00,
2013-10-10 17:17:00,78.1,54.4,29.78,SW,225,0.0,0.0,44,0.00,CLR,,0.00,WeatherDisplay:10.37,2013-10-10 21:17:00,
2013-10-10 17:22:00,77.7,53.4,29.78,SW,225,0.0,0.0,43,0.00,CLR,,0.00,WeatherDisplay:10.37,2013-10-10 21:22:00,
2013-10-10 17:27:00,77.4,53.1,29.77,SW,225,0.0,0.0,43,0.00,CLR,,0.00,WeatherDisplay:10.37,2013-10-10 21:27:00,
2013-10-10 17:32:00,76.8,53.9,29.77,SW,225,0.0,0.0,45,0.00,CLR,,0.00,WeatherDisplay:10.37,2013-10-10 21:32:00,
2013-10-10 17:37:00,77.0,53.4,29.77,SW,225,0.0,0.0,44,0.00,CLR,,0.00,WeatherDisplay:10.37,2013-10-10 21:37:00,
2013-10-10 17:42:00,77.5,53.9,29.76,West,270,0.0,0.0,44,0.00,CLR,,0.00,WeatherDisplay:10.37,2013-10-10 21:42:00,
2013-10-10 17:47:00,77.2,54.2,29.76,West,270,0.0,0.0,45,0.00,CLR,,0.00,WeatherDisplay:10.37,2013-10-10 21:47:00,
2013-10-10 17:52:00,75.9,53.6,29.77,West,270,0.0,0.0,46,0.00,CLR,,0.00,WeatherDisplay:10.37,2013-10-10 21:52:00,
2013-10-10 17:57:00,74.8,53.8,29.77,West,270,0.0,1.2,48,0.00,CLR,,0.00,WeatherDisplay:10.37,2013-10-10 21:57:00,
2013-10-10 18:02:00,74.7,53.7,29.77,West,270,0.0,0.0,48,0.00,CLR,,0.00,WeatherDisplay:10.37,2013-10-10 22:02:00,
2013-10-10 18:07:00,74.8,53.8,29.77,West,270,0.0,0.0,48,0.00,CLR,,0.00,WeatherDisplay:10.37,2013-10-10 22:07:00,
2013-10-10 18:12:00,75.6,54.5,29.77,West,270,0.0,1.2,48,0.00,CLR,,0.00,WeatherDisplay:10.37,2013-10-10 22:12:00,
2013-10-10 18:17:00,75.6,54.5,29.77,West,270,0.0,0.0,48,0.00,CLR,,0.00,WeatherDisplay:10.37,2013-10-10 22:17:00,
2013-10-10 18:22:00,75.6,54.5,29.77,West,270,0.0,0.0,48,0.00,CLR,,0.00,WeatherDisplay:10.37,2013-10-10 22:22:00,
2013-10-10 18:27:00,74.8,54.4,29.77,West,270,0.0,0.0,49,0.00,CLR,,0.00,WeatherDisplay:10.37,2013-10-10 22:27:00,
2013-10-10 18:32:00,74.3,54.5,29.77,West,270,0.0,0.0,50,0.00,CLR,,0.00,WeatherDisplay:10.37,2013-10-10 22:32:00,
2013-10-10 18:37:00,73.4,54.2,29.77,West,270,0.0,1.2,51,0.00,CLR,,0.00,WeatherDisplay:10.37,2013-10-10 22:37:00,
2013-10-10 18:42:00,72.1,53.5,29.78,West,270,0.0,0.0,52,0.00,CLR,,0.00,WeatherDisplay:10.37,2013-10-10 22:42:00,
2013-10-10 18:47:00,71.1,54.1,29.79,West,270,0.0,0.0,55,0.00,CLR,,0.00,WeatherDisplay:10.37,2013-10-10 22:47:00,
2013-10-10 18:52:00,70.3,53.9,29.80,West,270,0.0,0.0,56,0.00,CLR,,0.00,WeatherDisplay:10.37,2013-10-10 22:52:00,
2013-10-10 18:57:00,69.4,54.0,29.81,West,270,0.0,0.0,58,0.00,CLR,,0.00,WeatherDisplay:10.37,2013-10-10 22:57:00,
2013-10-10 19:02:00,68.7,54.3,29.81,West,270,0.0,0.0,60,0.00,CLR,,0.00,WeatherDisplay:10.37,2013-10-10 23:02:00,
2013-10-10 19:07:00,68.0,54.5,29.81,West,270,0.0,0.0,62,0.00,CLR,,0.00,WeatherDisplay:10.37,2013-10-10 23:07:00,
2013-10-10 19:12:00,66.9,54.3,29.82,West,270,0.0,0.0,64,0.00,CLR,,0.00,WeatherDisplay:10.37,2013-10-10 23:12:00,
2013-10-10 19:17:00,66.2,54.1,29.83,West,270,0.0,0.0,65,0.00,CLR,,0.00,WeatherDisplay:10.37,2013-10-10 23:17:00,
2013-10-10 19:22:00,65.7,54.4,29.83,West,270,0.0,0.0,67,0.00,CLR,,0.00,WeatherDisplay:10.37,2013-10-10 23:22:00,
2013-10-10 19:27:00,65.1,53.9,29.84,West,270,0.0,0.0,67,0.00,CLR,,0.00,WeatherDisplay:10.37,2013-10-10 23:27:00,
2013-10-10 19:32:00,64.6,53.8,29.84,West,270,0.0,0.0,68,0.00,CLR,,0.00,WeatherDisplay:10.37,2013-10-10 23:32:00,
2013-10-10 19:37:00,64.0,53.7,29.85,West,270,0.0,0.0,69,0.00,CLR,,0.00,WeatherDisplay:10.37,2013-10-10 23:37:00,
2013-10-10 19:42:00,63.5,53.5,29.85,West,270,0.0,0.0,70,0.00,CLR,,0.00,WeatherDisplay:10.37,2013-10-10 23:42:00,
2013-10-10 19:47:00,62.8,53.2,29.85,West,270,0.0,0.0,71,0.00,CLR,,0.00,WeatherDisplay:10.37,2013-10-10 23:47:00,
2013-10-10 19:52:00,62.2,53.5,29.86,West,270,0.0,0.0,73,0.00,CLR,,0.00,WeatherDisplay:10.37,2013-10-10 23:52:00,
2013-10-10 19:57:00,61.7,53.3,29.86,West,270,0.0,0.0,74,0.00,CLR,,0.00,WeatherDisplay:10.37,2013-10-10 23:57:00,
2013-10-10 20:02:00,61.3,53.3,29.87,West,270,0.0,0.0,75,0.00,CLR,,0.00,WeatherDisplay:10.37,2013-10-11 00:02:00,
2013-10-10 20:07:00,61.3,53.3,29.87,West,270,0.0,0.0,75,0.00,CLR,,0.00,WeatherDisplay:10.37,2013-10-11 00:07:00,
2013-10-10 20:12:00,60.3,53.7,29.87,West,270,0.0,0.0,79,0.00,CLR,,0.00,WeatherDisplay:10.37,2013-10-11 00:12:00,
2013-10-10 20:17:00,59.9,53.7,29.87,West,270,0.0,0.0,80,0.00,CLR,,0.00,WeatherDisplay:10.37,2013-10-11 00:17:00,
2013-10-10 20:22:00,59.7,53.9,29.88,West,270,0.0,0.0,81,0.00,CLR,,0.00,WeatherDisplay:10.37,2013-10-11 00:22:00,
2013-10-10 20:27:00,59.4,54.2,29.88,West,270,0.0,0.0,83,0.00,CLR,,0.00,WeatherDisplay:10.37,2013-10-11 00:27:00,
2013-10-10 20:32:00,59.2,54.0,29.88,West,270,0.0,0.0,83,0.00,CLR,,0.00,WeatherDisplay:10.37,2013-10-11 00:32:00,
2013-10-10 20:37:00,59.0,54.2,29.88,West,270,0.0,0.0,84,0.00,CLR,,0.00,WeatherDisplay:10.37,2013-10-11 00:37:00,
2013-10-10 20:42:00,58.6,54.1,29.88,West,270,0.0,0.0,85,0.00,CLR,,0.00,WeatherDisplay:10.37,2013-10-11 00:42:00,
2013-10-10 20:47:00,58.3,53.8,29.88,West,270,0.0,0.0,85,0.00,CLR,,0.00,WeatherDisplay:10.37,2013-10-11 00:47:00,
2013-10-10 20:52:00,58.1,53.6,29.88,West,270,0.0,0.0,85,0.00,CLR,,0.00,WeatherDisplay:10.37,2013-10-11 00:52:00,
2013-10-10 20:57:00,57.7,53.6,29.89,West,270,0.0,0.0,86,0.00,CLR,,0.00,WeatherDisplay:10.37,2013-10-11 00:57:00,
2013-10-10 21:02:00,57.4,53.5,29.89,West,270,0.0,0.0,87,0.00,CLR,,0.00,WeatherDisplay:10.37,2013-10-11 01:02:00,
2013-10-10 21:07:00,57.2,53.4,29.89,West,270,0.0,0.0,87,0.00,CLR,,0.00,WeatherDisplay:10.37,2013-10-11 01:07:00,
2013-10-10 21:12:00,57.0,53.8,29.89,West,270,0.0,0.0,89,0.00,CLR,,0.00,WeatherDisplay:10.37,2013-10-11 01:12:00,
2013-10-10 21:17:00,56.8,53.6,29.89,West,270,0.0,0.0,89,0.00,CLR,,0.00,WeatherDisplay:10.37,2013-10-11 01:17:00,
2013-10-10 21:22:00,56.7,53.8,29.90,West,270,0.0,0.0,90,0.00,CLR,,0.00,WeatherDisplay:10.37,2013-10-11 01:22:00,
2013-10-10 21:27:00,56.5,53.6,29.90,West,270,0.0,0.0,90,0.00,CLR,,0.00,WeatherDisplay:10.37,2013-10-11 01:27:00,
2013-10-10 21:32:00,56.1,53.2,29.90,West,270,0.0,0.0,90,0.00,CLR,,0.00,WeatherDisplay:10.37,2013-10-11 01:32:00,
2013-10-10 21:37:00,56.1,53.2,29.90,West,270,0.0,0.0,90,0.00,CLR,,0.00,WeatherDisplay:10.37,2013-10-11 01:37:00,
2013-10-10 21:42:00,55.9,53.0,29.89,West,270,0.0,0.0,90,0.00,CLR,,0.00,WeatherDisplay:10.37,2013-10-11 01:42:00,
2013-10-10 21:47:00,55.9,53.4,29.90,West,270,0.0,0.0,91,0.00,CLR,,0.00,WeatherDisplay:10.37,2013-10-11 01:47:00,
2013-10-10 21:52:00,55.8,53.2,29.90,West,270,0.0,0.0,91,0.00,CLR,,0.00,WeatherDisplay:10.37,2013-10-11 01:52:00,
2013-10-10 21:57:00,55.8,53.5,29.90,West,270,0.0,0.0,92,0.00,CLR,,0.00,WeatherDisplay:10.37,2013-10-11 01:57:00,
2013-10-10 22:02:00,55.6,53.3,29.90,West,270,0.0,0.0,92,0.00,CLR,,0.00,WeatherDisplay:10.37,2013-10-11 02:02:00,
2013-10-10 22:07:00,55.6,53.3,29.90,West,270,0.0,0.0,92,0.00,CLR,,0.00,WeatherDisplay:10.37,2013-10-11 02:07:00,
2013-10-10 22:12:00,55.4,53.1,29.91,West,270,0.0,0.0,92,0.00,CLR,,0.00,WeatherDisplay:10.37,2013-10-11 02:12:00,
2013-10-10 22:17:00,55.4,53.4,29.91,West,270,0.0,0.0,93,0.00,CLR,,0.00,WeatherDisplay:10.37,2013-10-11 02:17:00,
2013-10-10 22:22:00,55.0,53.1,29.91,West,270,0.0,0.0,93,0.00,CLR,,0.00,WeatherDisplay:10.37,2013-10-11 02:22:00,
2013-10-10 22:27:00,54.9,52.9,29.91,West,270,0.0,0.0,93,0.00,CLR,,0.00,WeatherDisplay:10.37,2013-10-11 02:27:00,
2013-10-10 22:32:00,54.7,52.7,29.91,West,270,0.0,0.0,93,0.00,CLR,,0.00,WeatherDisplay:10.37,2013-10-11 02:32:00,
2013-10-10 22:37:00,54.3,52.3,29.91,West,270,0.0,0.0,93,0.00,CLR,,0.00,WeatherDisplay:10.37,2013-10-11 02:37:00,
2013-10-10 22:42:00,54.1,52.2,29.91,West,270,0.0,0.0,93,0.00,CLR,,0.00,WeatherDisplay:10.37,2013-10-11 02:42:00,
2013-10-10 22:47:00,54.0,52.0,29.91,West,270,0.0,0.0,93,0.00,CLR,,0.00,WeatherDisplay:10.37,2013-10-11 02:47:00,
2013-10-10 22:52:00,53.6,51.9,29.91,West,270,0.0,0.0,94,0.00,CLR,,0.00,WeatherDisplay:10.37,2013-10-11 02:52:00,
2013-10-10 22:57:00,53.4,52.0,29.91,West,270,0.0,0.0,95,0.00,CLR,,0.00,WeatherDisplay:10.37,2013-10-11 02:57:00,
2013-10-10 23:02:00,53.2,51.8,29.91,West,270,0.0,0.0,95,0.00,CLR,,0.00,WeatherDisplay:10.37,2013-10-11 03:02:00,
2013-10-10 23:07:00,53.2,52.1,29.92,West,270,0.0,0.0,96,0.00,CLR,,0.00,WeatherDisplay:10.37,2013-10-11 03:07:00,
2013-10-10 23:12:00,53.1,52.0,29.92,West,270,0.0,0.0,96,0.00,CLR,,0.00,WeatherDisplay:10.37,2013-10-11 03:12:00,
2013-10-10 23:17:00,52.7,51.6,29.92,West,270,0.0,0.0,96,0.00,CLR,,0.00,WeatherDisplay:10.37,2013-10-11 03:17:00,
2013-10-10 23:22:00,52.5,51.7,29.91,West,270,0.0,0.0,97,0.00,CLR,,0.00,WeatherDisplay:10.37,2013-10-11 03:22:00,
2013-10-10 23:27:00,52.5,51.7,29.92,West,270,0.0,0.0,97,0.00,CLR,,0.00,WeatherDisplay:10.37,2013-10-11 03:27:00,
2013-10-10 23:32:00,52.3,51.8,29.92,West,270,0.0,0.0,98,0.00,CLR,,0.00,WeatherDisplay:10.37,2013-10-11 03:32:00,
2013-10-10 23:37:00,52.2,51.6,29.92,West,270,0.0,0.0,98,0.00,CLR,,0.00,WeatherDisplay:10.37,2013-10-11 03:37:00,
2013-10-10 23:42:00,52.0,51.4,29.92,West,270,0.0,0.0,98,0.00,CLR,,0.00,WeatherDisplay:10.37,2013-10-11 03:42:00,
2013-10-10 23:47:00,52.0,51.4,29.92,West,270,0.0,0.0,98,0.00,CLR,,0.00,WeatherDisplay:10.37,2013-10-11 03:47:00,
2013-10-10 23:52:00,52.0,51.4,29.91,West,270,0.0,0.0,98,0.00,CLR,,0.00,WeatherDisplay:10.37,2013-10-11 03:52:00,
2013-10-10 23:57:00,52.2,51.6,29.92,West,270,0.0,0.0,98,0.00,CLR,,0.00,WeatherDisplay:10.37,2013-10-11 03:57:00,